This demonstration page uses our WeatherBlox Daily Observations layout. Learn more.

Left ArrowRight Arrow

39.01783, -85.05884

Hourly Observations for March 4, 2017

Temp ( °F °C ) Dew Point ( °F °C ) Humidity (%) Winds ( mph kmh ) Pressure ( in mb ) Visibility ( mi km ) Precip ( " mm )
12:52 am 00:52 Cloudy 26 -3.3 18 -7.8 71 71 Calm 30.61 1037 10 16 0.00 0.00
1:52 am 01:52 Cloudy 30 -1.1 15 -9.4 54 54 N 3 6 30.62 1037 10 16 0.00 0.00
2:52 am 02:52 Cloudy 30 -1.1 14 -10 51 51 E 6 9 30.60 1036 10 16 0.00 0.00
3:52 am 03:52 Cloudy 30 -1.1 14 -10 51 51 E 6 9 30.60 1036 10 16 0.00 0.00
4:52 am 04:52 Cloudy 30 -1.1 15 -9.4 54 54 ESE 7 11 30.62 1037 10 16 0.00 0.00
5:52 am 05:52 Cloudy 30 -1.1 15 -9.4 54 54 SE 8 13 30.63 1037 10 16 0.00 0.00
6:24 am 06:24 Cloudy with Light Snow 30 -1 16 -9 55 55 E 8 13 30.65 1038 6 10 0.00 0.00
6:30 am 06:30 Cloudy with Light Snow 28 -2 19 -7 69 69 ESE 9 15 30.68 1039 2 3 0.00 0.00
6:39 am 06:39 Cloudy with Light Snow 27 -2.8 21 -6.1 78 78 E 9 15 30.68 1039 1 2 0.00 0.03
6:42 am 06:42 Mostly Cloudy with Light Snow 27 -2.8 21 -6.1 78 78 ESE 7 11 30.68 1039 1 2 0.01 0.25
6:52 am 06:52 Mostly Cloudy with Light Snow 26 -3.3 22 -5.6 84 84 ESE 9 15 30.63 1037 1 2 0.01 0.25
7:06 am 07:06 Mostly Cloudy with Light Snow 27 -3 23 -5 86 86 E 7 11 30.68 1039 1 1 0.00 0.00
7:36 am 07:36 Cloudy with Light Snow 27 -3 25 -4 93 93 E 7 11 30.68 1039 1 1 0.00 0.00
7:44 am 07:44 Cloudy with Light Snow 27 -3 25 -4 93 93 ESE 9 15 30.68 1039 2 3 0.00 0.00
7:52 am 07:52 Cloudy with Mist and Fog 26 -3.3 24 -4.4 92 92 ESE 7 11 30.64 1038 3 5 0.03 0.76
8:52 am 08:52 Cloudy 27 -2.8 24 -4.4 89 89 ESE 9 15 30.66 1038 10 16 0.00 0.00
9:52 am 09:52 Cloudy 29 -1.7 24 -4.4 82 82 ESE 13 20 30.66 1038 10 16 0.00 0.00
10:52 am 10:52 Mostly Cloudy 32 0 27 -2.8 82 82 E 9 15 30.64 1038 10 16 0.00 0.00
11:52 am 11:52 Mostly Cloudy 34 1.1 27 -2.8 76 76 ESE 12 19 30.63 1037 10 16 0.00 0.00
12:52 pm 12:52 Partly Cloudy 38 3.3 27 -2.8 65 65 E 7 11 30.59 1036 10 16 0.00 0.00
1:52 pm 13:52 Mostly Sunny 40 4.4 27 -2.8 60 60 E 13 20 30.55 1034 10 16 0.00 0.00
2:52 pm 14:52 Mostly Sunny 42 5.6 28 -2.2 58 58 ESE 12 19 30.52 1033 10 16 0.00 0.00
3:52 pm 15:52 Mostly Sunny 43 6.1 28 -2.2 56 56 E 12 19 30.50 1033 10 16 0.00 0.00
4:52 pm 16:52 Mostly Sunny 42 5.6 28 -2.2 58 58 E 12 19 30.50 1033 10 16 0.00 0.00
5:52 pm 17:52 Mostly Sunny 41 5 27 -2.8 57 57 E 14 22 30.49 1033 10 16 0.00 0.00
6:52 pm 18:52 Mostly Clear 38 3.3 26 -3.3 62 62 E 13 20 30.50 1033 10 16 0.00 0.00
7:52 pm 19:52 Clear 37 2.8 25 -3.9 62 62 E 13 20 30.50 1033 10 16 0.00 0.00
8:52 pm 20:52 Mostly Clear 36 2.2 23 -5 59 59 E 14 22 30.50 1033 10 16 0.00 0.00
9:52 pm 21:52 Mostly Clear 35 1.7 22 -5.6 59 59 ESE 9 15 30.51 1033 10 16 0.00 0.00
10:52 pm 22:52 Clear 34 1.1 22 -5.6 61 61 E 9 15 30.50 1033 10 16 0.00 0.00
11:52 pm 23:52 Clear 33 0.6 22 -5.6 64 64 ESE 8 13 30.49 1033 10 16 0.00 0.00

Powered by AerisWeather